Location: Caltech
(34.1382°N, 118.1253°W)
Time: 20:53:28
(UTC-07:00)

OAO 2 Rocket - Visible Passes

Search period start: 22 July 2014 00:00
Search period end: 01 August 2014 00:00
Orbit: 678 x 749 km, 35.0° (Epoch: 22 July)

Date Brightness Start Highest point End Pass type
(mag) Time Alt. Az. Time Alt. Az. Time Alt. Az.
22 Jul 5.6 03:30:35 12° SE 03:30:35 12° SE 03:31:04 10° SE visible
22 Jul 5.2 05:09:44 11° SW 05:10:19 11° SW 05:11:48 10° SSW visible
22 Jul 3.9 21:09:46 10° SW 21:14:37 39° SSE 21:18:20 16° E visible
22 Jul 4.3 22:54:00 10° WSW 22:57:23 41° WSW 22:57:23 41° WSW visible
23 Jul 3.3 21:57:00 10° WSW 22:02:15 74° SSE 22:04:03 42° E visible
23 Jul 5.6 23:41:54 10° W 23:43:05 17° W 23:43:05 17° W visible
24 Jul 3.5 21:00:06 10° WSW 21:05:13 59° SSE 21:10:26 10° E visible
24 Jul 3.6 22:44:48 10° W 22:49:28 69° WNW 22:49:28 69° WNW visible
25 Jul 3.3 21:47:44 10° W 21:53:00 89° NNW 21:55:40 30° E visible
25 Jul 5.3 23:32:42 10° W 23:34:41 23° W 23:34:41 23° W visible
26 Jul 3.4 20:50:44 10° WSW 20:55:55 79° SSE 21:01:13 10° E visible
26 Jul 3.4 22:35:38 10° W 22:40:44 79° NNW 22:40:44 79° NNW visible
27 Jul 3.4 21:38:33 10° W 21:43:47 81° N 21:46:41 28° E visible
27 Jul 5.2 23:23:30 10° W 23:25:41 25° W 23:25:41 25° W visible
28 Jul 3.4 20:41:30 10° W 20:46:41 86° N 20:51:59 10° E visible
28 Jul 3.3 22:26:26 10° W 22:31:35 86° WNW 22:31:35 86° WNW visible
29 Jul 3.4 21:29:23 10° W 21:34:36 82° N 21:37:27 28° E visible
29 Jul 5.2 23:14:18 10° W 23:16:26 24° W 23:16:26 24° W visible
30 Jul 3.5 20:32:20 10° W 20:37:30 80° N 20:42:46 10° E visible
30 Jul 3.3 22:17:14 10° W 22:22:17 73° SW 22:22:17 73° SW visible
31 Jul 3.3 21:20:12 10° W 21:25:23 87° S 21:28:07 29° ESE visible
31 Jul 5.3 23:05:14 10° W 23:07:07 21° W 23:07:07 21° W visible
